Weather History for KIZG - January, 2014

Change the Weather History Date:

Sunday, January 26, 2014

  Actual Average Record
Temperature  
Mean Temperature 14 °F -  
Max Temperature 21 °F 27 °F 48 °F (2002)
Min Temperature 7 °F 2 °F -25 °F (2004)
Degree Days  
Heating Degree Days 51    
Moisture  
Dew Point -4 °F    
Average Humidity 46    
Maximum Humidity 74    
Minimum Humidity 29    
Precipitation  
Precipitation 0.00 in - - ()
Sea Level Pressure  
Sea Level Pressure 29.62 in    
Wind  
Wind Speed 8 mph (WSW)    
Max Wind Speed 16 mph    
Max Gust Speed 28 mph    
Visibility 10 miles    
Events Snow    
Averages and records for this station are not official NWS values.
T = Trace of Precipitation, MM = Missing Value Source: NWS Daily Summary

Daily Weather History Graph

Daily Weather History Graph

Search for Another Location

Airport or City:

Trip Planner

Search our weather history database for the weather conditions in past years. The results will help you decide how hot, cold, wet, or windy it might be!

Date:

Astronomy

Jan. 26, 2014 Rise Set
Actual Time 7:07 AM EST 4:45 PM EST
Civil Twilight 6:36 AM EST 5:17 PM EST
Nautical Twilight 6:01 AM EST 5:52 PM EST
Astronomical Twilight 5:27 AM EST 6:26 PM EST
Moon 2:41 AM EST (1/26) 12:31 PM EST (1/26)
Length of Visible Light 10h 41m
Length of Day
9h 38m
Waning Crescent, 24% of the Moon is Illuminated
Jan 26
Waning Crescent
Jan 30
New
Feb 6
First Quarter
Feb 14
Full
Feb 22
Last Quarter

Hourly Weather History & Observations

Time (EST) Temp. Windchill Dew Point Humidity Pressure Visibility Wind Dir Wind Speed Gust Speed Precip Events Conditions
12:54 AM 21.0 °F 11.4 °F 14.0 °F 74% 29.24 in 10.0 mi WSW 8.1 mph - N/A   Overcast
1:54 AM 21.0 °F 13.4 °F 14.0 °F 74% 29.25 in 10.0 mi Variable 5.8 mph - N/A   Mostly Cloudy
2:54 AM 21.0 °F 12.4 °F 12.9 °F 71% 29.28 in 10.0 mi West 6.9 mph - N/A   Overcast
3:54 AM 21.0 °F 12.4 °F 10.0 °F 63% 29.32 in 10.0 mi West 6.9 mph - 0.00 in   Overcast
4:54 AM 19.9 °F 12.1 °F 10.9 °F 68% 29.37 in 9.0 mi Variable 5.8 mph - 0.00 in Snow Light Snow
5:16 AM 17.1 °F 2.5 °F 1.9 °F 52% 29.37 in 10.0 mi WNW 15.0 mph 23.0 mph 0.00 in   Overcast
5:54 AM 14.0 °F 2.0 °F -0.9 °F 52% 29.44 in 10.0 mi West 9.2 mph 17.3 mph 0.00 in   Mostly Cloudy
6:54 AM 8.1 °F -6.2 °F -6.0 °F 53% 29.51 in 10.0 mi NW 10.4 mph - N/A   Scattered Clouds
7:54 AM 7.0 °F -11.0 °F -11.9 °F 42% 29.55 in 10.0 mi WNW 16.1 mph 24.2 mph N/A   Clear
8:54 AM 7.0 °F -9.1 °F -14.1 °F 38% 29.59 in 10.0 mi WNW 12.7 mph 24.2 mph N/A   Clear
9:54 AM 9.0 °F -7.9 °F -15.0 °F 33% 29.64 in 10.0 mi WNW 15.0 mph 25.3 mph N/A   Clear
10:54 AM 10.9 °F -4.1 °F -15.0 °F 30% 29.66 in 10.0 mi WNW 12.7 mph 25.3 mph N/A   Clear
11:54 AM 12.9 °F 5.2 °F -13.0 °F 31% 29.67 in 10.0 mi Variable 4.6 mph - N/A   Clear
12:54 PM 14.0 °F -2.0 °F -11.9 °F 31% 29.68 in 10.0 mi WSW 16.1 mph 26.5 mph N/A   Clear
1:54 PM 14.0 °F -1.4 °F -11.9 °F 31% 29.70 in 10.0 mi West 15.0 mph 27.6 mph N/A   Clear
2:54 PM 15.1 °F 1.1 °F -11.9 °F 29% 29.72 in 10.0 mi WNW 12.7 mph 18.4 mph N/A   Clear
3:54 PM 14.0 °F 6.5 °F -11.0 °F 32% 29.75 in 10.0 mi Variable 4.6 mph - N/A   Clear
4:54 PM 14.0 °F 6.5 °F -9.0 °F 35% 29.77 in 10.0 mi SW 4.6 mph - N/A   Clear
5:54 PM 14.0 °F 5.1 °F -8.0 °F 37% 29.82 in 10.0 mi SW 5.8 mph 16.1 mph N/A   Overcast
6:54 PM 12.0 °F 4.1 °F -8.0 °F 41% 29.81 in 10.0 mi SSW 4.6 mph - N/A   Clear
7:54 PM 10.0 °F 1.8 °F -8.0 °F 44% 29.84 in 10.0 mi South 4.6 mph - N/A   Overcast
8:54 PM 10.9 °F 2.9 °F -7.1 °F 44% 29.86 in 10.0 mi South 4.6 mph - N/A   Overcast
9:54 PM 10.9 °F 4.7 °F -4.0 °F 51% 29.86 in 10.0 mi South 3.5 mph - N/A   Overcast
10:54 PM 12.9 °F 6.9 °F -5.1 °F 45% 29.85 in 10.0 mi South 3.5 mph - N/A   Overcast
11:54 PM 12.9 °F - -2.9 °F 49% 29.85 in 10.0 mi Calm Calm - N/A   Overcast